Regional Weather Roundup
Issued by NWS Charleston, SC

Current Version | Previous Version | Graphics & Text | Print | Product List | Glossary On
Versions: 1 2 3 4 5 6 7 8 9 10 11 12 13 14 15 16 17 18 19 20 21 22 23 24 25 26 27 28 29 30 31 32 33 34 35 36 37 38 39 40 41 42 43 44 45 46 47 48 49 50
000 ASUS42 KCHS 231025 RWRCHS REGIONAL WEATHER ROUNDUP NATIONAL WEATHER SERVICE CHARLESTON SC 600 AM EDT TUE SEP 23 2014 NOTE: "FAIR" INDICATES FEW OR NO CLOUDS BELOW 12,000 FEET WITH NO SIGNIFICANT WEATHER AND/OR OBSTRUCTIONS TO VISIBILITY. NOT ALL STATIONS ARE QUALITY CONTROLLED BY THE NATIONAL WEATHER SERVICE. USE DATA WITH CAUTION...ESPECIALLY DEWPOINT OBSERVATIONS. SCZ027-030-031-034>040-042>050-231100- ...SOUTH CAROLINA... CITY SKY/WX TMP DP RH WIND PRES REMARKS N CHARLESTON LGT RAIN 67 63 87 NE6 30.09S WATERFRONT PRK NOT AVBL FORT JOHNSON NOT AVBL MOUNT PLEASANT LGT RAIN 64 64 100 N3 30.08F JOHNS ISLAND LGT RAIN 66 66 100 N3 30.09S PINOPOLIS N/A 70 63 78 E9 30.04R MONCKS CORNER N/A 66 64 94 NE3 30.10S SUMMERVILLE LGT RAIN 64 64 100 NW3 30.12 BEAUFORT MCAS LGT RAIN 67 65 93 MISG 30.12R BEAUFORT ARPT RAIN 68 68 100 N10 30.10S HILTON HEAD IS NOT AVBL GEORGETOWN NOT AVBL WALTERBORO LGT RAIN 66 N/A N/A NW7 30.14R ORANGEBURG CLOUDY 64 61 90 W5 30.15S BARNWELL LGT RAIN 64 63 94 CALM 30.15R AIKEN FAIR 63 63 100 NE7 30.18R MANNING CLOUDY 64 N/A N/A CALM 30.14R KINGSTREE NOT AVBL COLUMBIA CLOUDY 65 59 81 N5 30.16R SUMTER LGT RAIN 64 59 82 N8 30.14R FLORENCE CLOUDY 64 60 87 N7 30.12R MYRTLE BEACH MOCLDY 66 61 82 N7 30.10S N MYRTLE BEACH CLOUDY 66 62 87 VRB7 30.10R $$ GAZ063-065-086>088-099>101-113>116-118-119-134-136>141-150-231100- ...GEORGIA... CITY SKY/WX TMP DP RH WIND PRES REMARKS SAVANNAH ARPT CLOUDY 68 62 81 NE12 30.09S HUNTER AAF MOCLDY 68 64 88 N10 30.07F FORT STEWART MOCLDY 65 62 87 N8 30.06F STATESBORO NOT AVBL SYLVANIA RAIN 66 66 98 E9 30.11F CLAXTON CLOUDY 64 64 100 CALM 30.09R THOMSON CLOUDY 64 64 100 CALM 30.19R AUGUSTA-BUSH CLOUDY 66 62 87 N7 30.12R AUGUSTA-DANIEL CLOUDY 65 61 87 NE3 30.14R SWAINSBORO CLOUDY 68 68 100 CALM 30.12R VIDALIA CLOUDY 64 64 100 N8 30.09S ALMA CLOUDY 66 63 90 VRB5 30.06S WAYCROSS PTCLDY 71 65 81 NE5 30.05S JESUP CLOUDY 70 64 83 E6 30.07R BRUNSWICK CLOUDY 68 63 83 N7 30.06S SAINT SIMONS CLOUDY 67 64 90 N13 30.04R $$ SCZ027-028-034-036>038-045-046-048>050-GAZ119-141-231100- ...LAKE AND SUPPLEMENTAL COASTAL OBSERVATIONS... STATION/POSITION TIME TEMP WIND PRES WAVE SWELL AIR SEA DIR/SP/G HT/PER HT/PER/DIR (UTC) (F) (DEG/KT/KT) (MB) (FT/S) (FT/S/D) UPR LAKE MARION NOT AVBL WINYAH BAY 1000 66 320/ 5 1019.0S LAKE MURRAY 0900 65 10/ 3/ 8 1019.6S ACE BASIN NERRS 1000 66 350/ 3 1019.0S FORT PULASKI 1000 68 340/ 13/ 18 1018.9S SAPELO ISLAND 1000 68 360/ 13 1018.0S $$ ANZ835-935-AMZ111-154-330-350-352-354-374-450-454-472-231100- ...C-MAN AND BUOY OBSERVATIONS... STATION/POSITION TIME TEMP WIND PRES WAVE SWELL AIR SEA DIR/SP/G HT/PER HT/PER/DIR (UTC) (F) (DEG/KT/KT) (MB) (FT/S) (FT/S/D) FOLLY BEACH CMAN 1000 68 10/ 12/ 13 1018.9S BUOY 41004 1000 72 81 40/ 14/ 16 1017.3F 4/ 5 2/ 8 BUOY 41008 1000 76 82 60/ 17/ 21 1017.0R 5/ 6 5E ST. MARYS GA 1000 83 N/A 4/ 6 FRYING PAN BUOY NOT AVBL BUOY 41025 1000 73 30/ 19/ 25 1020.2R 5/ 7 2/ 60/ 9 CAPE LOOKOUT NC 1000 73 40/ 22/ 28 1020.0R BUOY 41002 0948 79 81 60/ 6/ 8 1018.1R 3/ 7 3/110/ 7 BUOY 41010 1000 79 84 160/ 2/ 4 1016.3R 2/ 8 2/ 60/ 8 BUOY 41012 NOT AVBL ST AUGUSTINE FL 1000 73 280/ 4/ 5 1016.0S CAPERS NEARSHORE 0900 71 50/ 16/ 19 N/A FRIPP NEARSHORE NOT AVBL $$

USA.gov is the U.S. government's official web portal to all federal, state and local government web resources and services.